[[{"header":{"parameterUnit":"m.s-1","parameterCategory":1,"la1":30.2992,"la2":30.254,"lo1":-89.0895,"lo2":-89.0443,"dy":0.0025,"dx":0.0025,"nx":19,"ny":19,"refTime":"2026-05-03T21:00:00:Z","depth":0,"parameterNumber":2,"parameterNumberName":"U-component_of_WINDS"},"data":[0,0,0,-2.0341,-2.0341,-2.0353,-2.0353,-2.0377,-2.0378,0,0,0,0,0,0,0,0,0,0,0,-2.0342,-2.0343,-2.0341,-2.0341,-2.0353,-2.0353,-2.0377,-2.0378,0,0,0,0,0,0,0,0,0,0,0,-2.0342,-2.0342,-2.0343,-2.0341,-2.0353,-2.0353,-2.0377,-2.0365,0,0,0,0,0,0,0,0,0,0,-2.0352,-2.0358,-2.0342,-2.0343,-2.0341,-2.0353,-2.0353,-2.0364,-2.0366,-2.0376,0,-2.0386,0,-2.0382,-2.038,-2.038,0,0,0,-2.0337,-2.0357,-2.0356,-2.0343,-2.0341,-2.0353,-2.0347,-2.0365,-2.0367,-2.0378,-2.0386,-2.0386,-2.0383,-2.038,-2.038,-2.045,-2.045,0,0,-2.0337,-2.0347,-2.0354,-2.0357,-2.0356,-2.0346,-2.0347,-2.0366,-2.0375,-2.0386,-2.0387,-2.0383,-2.038,-2.0381,-2.0449,-2.045,0,0,0,-2.0337,-2.0347,-2.0345,-2.0356,-2.0358,-2.0347,-2.0348,-2.0375,-2.0373,-2.0387,-2.0383,-2.038,-2.0381,-2.0449,-2.045,-2.0484,0,0,0,-2.0337,-2.0347,-2.0345,-2.0351,-2.0358,-2.0366,-2.0356,-2.0372,-2.0374,-2.0383,-2.0381,-2.0381,-2.0448,-2.0449,-2.0482,-2.0499,0,0,0,-2.034,-2.0347,-2.0351,-2.0352,-2.0357,-2.0366,-2.0365,-2.0372,-2.0372,-2.038,-2.0381,-2.0448,-2.0449,-2.048,-2.0495,-2.052,0,0,0,-2.0346,-2.0381,-2.0352,-2.039,-2.0357,-2.0388,-2.0365,-2.0387,-2.0398,-2.0381,-2.0448,-2.045,-2.048,-2.0493,-2.0518,-2.0542,-2.0553,0,0,-2.0396,-2.0388,-2.041,-2.0383,-2.0421,-2.0385,-2.0428,-2.0429,-2.042,-2.0441,-2.0442,-2.0483,-2.0495,-2.0519,-2.0613,-2.0622,0,0,0,-2.0429,-2.0445,-2.0453,-2.0464,-2.0466,-2.0469,-2.0462,-2.0463,-2.048,-2.0433,-2.0498,-2.0505,-2.0519,-2.053,-2.0538,-2.0549,-2.0455,-2.0455,-2.0455,-2.0514,-2.0502,-2.0538,-2.0527,-2.0539,-2.0532,-2.0541,-2.054,-2.0524,-2.054,-2.0545,-2.0604,-2.0617,-2.0622,-2.0634,-2.0558,-2.0558,-2.0558,-2.0558,-2.0587,-2.0607,-2.0586,-2.0612,-2.06,-2.0622,-2.0618,-2.0606,-2.0625,-2.0598,-2.061,-2.0581,-2.0632,-2.0642,-2.056,-2.056,-2.056,-2.0559,-2.0559,-2.064,-2.0648,-2.0649,-2.0665,-2.0679,-2.0668,-2.0688,-2.0675,-2.0664,-2.0675,-2.068,-2.0679,-2.0676,-2.0679,-2.0679,-2.0679,-2.0679,-2.0679,-2.0679,-2.0695,-2.0695,-2.0713,-2.0719,-2.0726,-2.0733,-2.0728,-2.0734,-2.0737,-2.0727,-2.0727,-2.0709,-2.064,-2.0623,-2.0682,-2.0682,-2.0682,-2.0681,-2.0681,-2.0771,-2.0752,-2.078,-2.0787,-2.0794,-2.0809,-2.0794,-2.0808,-2.0811,-2.0821,-2.0802,-2.0753,-2.0743,-2.0737,-2.0723,-2.0805,-2.0805,-2.0805,-2.0805,-2.0815,-2.081,-2.0836,-2.0848,-2.0858,-2.0848,-2.088,-2.0877,-2.0871,-2.0873,-2.0859,-2.0839,-2.0834,-2.0827,-2.0819,-2.0805,-2.0906,-2.0906,-2.0906,-2.0861,-2.0856,-2.0886,-2.088,-2.0885,-2.089,-2.092,-2.0935,-2.0924,-2.091,-2.0873,-2.0869,-2.0837,-2.0827,-2.081,-2.0798,-2.0772,0,0]},{"header":{"parameterUnit":"m.s-1","parameterCategory":1,"la1":30.2992,"la2":30.254,"lo1":-89.0895,"lo2":-89.0443,"dy":0.0025,"dx":0.0025,"nx":19,"ny":19,"refTime":"2026-05-03T21:00:00:Z","depth":0,"parameterNumber":3,"parameterNumberName":"V-component_of_WINDS"},"data":[0,0,0,0.8798,0.8798,0.8753,0.8753,0.8699,0.8699,0,0,0,0,0,0,0,0,0,0,0,0.8814,0.8814,0.8799,0.8797,0.8753,0.8753,0.87,0.8699,0,0,0,0,0,0,0,0,0,0,0,0.8814,0.8814,0.8814,0.8797,0.8753,0.8753,0.87,0.8732,0,0,0,0,0,0,0,0,0,0,0.8774,0.8791,0.8814,0.8814,0.8797,0.8753,0.8753,0.8733,0.873,0.8721,0,0.8715,0,0.8706,0.8696,0.8696,0,0,0,0.8795,0.8794,0.878,0.8814,0.8797,0.8753,0.8773,0.8731,0.8727,0.8717,0.8714,0.8712,0.8705,0.8695,0.8695,0.8655,0.8655,0,0,0.8798,0.8807,0.8783,0.8778,0.8786,0.8774,0.8771,0.8729,0.8726,0.8714,0.8711,0.8704,0.8695,0.8695,0.8655,0.8655,0,0,0,0.8806,0.8809,0.8796,0.878,0.8772,0.8773,0.8769,0.8728,0.8723,0.871,0.8704,0.8695,0.8694,0.8655,0.8655,0.8661,0,0,0,0.8808,0.8814,0.8797,0.8802,0.8773,0.875,0.877,0.8726,0.8721,0.8704,0.8695,0.8694,0.8655,0.8655,0.8661,0.8662,0,0,0,0.8816,0.8815,0.881,0.8803,0.8784,0.875,0.8743,0.8725,0.8717,0.8696,0.8694,0.8656,0.8655,0.8661,0.8662,0.8655,0,0,0,0.8828,0.8814,0.881,0.8793,0.8785,0.8754,0.8743,0.8719,0.8701,0.8695,0.8655,0.8655,0.8661,0.8662,0.8655,0.8651,0.865,0,0,0.8816,0.8813,0.8803,0.8797,0.877,0.876,0.8734,0.8707,0.8696,0.8669,0.8668,0.8661,0.8662,0.8655,0.8641,0.8641,0,0,0,0.8802,0.8794,0.8785,0.8769,0.875,0.8733,0.871,0.8701,0.8678,0.8685,0.8656,0.8656,0.8652,0.8649,0.8649,0.8644,0.8655,0.8655,0.8655,0.8799,0.8787,0.8768,0.875,0.8735,0.8712,0.8698,0.8681,0.8672,0.8666,0.8658,0.8651,0.8648,0.8648,0.8644,0.8654,0.8654,0.8654,0.8654,0.8781,0.8769,0.8758,0.8736,0.8723,0.8704,0.8682,0.8676,0.8657,0.8656,0.8651,0.8651,0.8648,0.8643,0.8654,0.8654,0.8654,0.8654,0.8654,0.8778,0.877,0.8759,0.8736,0.8719,0.8701,0.8683,0.8671,0.866,0.8655,0.8646,0.8645,0.8644,0.8651,0.8651,0.8651,0.8651,0.8651,0.8651,0.8779,0.8767,0.8754,0.8733,0.8722,0.8705,0.8683,0.8671,0.8655,0.8648,0.8648,0.8639,0.865,0.8653,0.8651,0.8651,0.8651,0.8651,0.8651,0.8766,0.8767,0.8747,0.8736,0.8711,0.8695,0.8681,0.8658,0.8646,0.8638,0.8631,0.8641,0.8637,0.8637,0.8639,0.8634,0.8634,0.8634,0.8634,0.8763,0.876,0.8738,0.8721,0.8703,0.8688,0.8665,0.8648,0.863,0.8623,0.8622,0.8624,0.8625,0.862,0.8621,0.8623,0.8613,0.8613,0.8613,0.8755,0.875,0.8733,0.8717,0.8697,0.868,0.8658,0.8639,0.8619,0.8612,0.8616,0.8617,0.8621,0.8622,0.8615,0.8617,0.862,0,0]}]]